Location: Bruderhein
(53.8035°N, 112.9265°W)
Time: 08:08:33
(UTC+00:00)

TIGRISAT - Pass Details

Date: 01 April 2023
Orbit: 599 x 682 km, 97.7° (Epoch: 03 June)

Event Time Altitude Azimuth Distance (km) Brightness Sun altitude
Rises 11:15:13 0° 137° (SE) 2,943 ? -15.9°
Reaches altitude 10° 11:17:31 10° 129° (SE) 2,052 ? -15.7°
Maximum altitude 11:21:34 35° 64° (ENE) 1,076 ? -15.1°
Drops below altitude 10° 11:25:45 10° 360° (N) 2,110 ? -14.6°
Sets 11:28:09 0° 351° (N) 3,039 ? -14.3°
